Tracking 20041 objects as of 22-Nov-2019
Live streaming from Space Station
objects crossing your sky now

GEOSAT

Track GEOSAT now!
10-day predictions
GEOSAT is classified as:


NORAD ID: 15595
Int'l Code: 1985-021A
Perigee: 769.9 km
Apogee: 773.7 km
Inclination: 108.0 °
Period: 100.1 minutes
Semi major axis: 7142 km
RCS: 9.5926 m2 (large)
Launch date: March 13, 1985
Source: United States (US)
Launch site: AIR FORCE WESTERN TEST RANGE (AFWTR)
aabbcc
Your satellite tracking list
Your tracking list is empty




NASA's NSSDC Master Catalog

Two Line Element Set (TLE):
1 15595U 85021A   19326.42952529 -.00000073  00000-0  20455-4 0  9991
2 15595 108.0358 137.9467 0002632 271.6732  88.4108 14.38133362818066
Source of the keplerian elements: AFSPC